User: anonymous   Login
Location: Hannover
(52.3723°N, 9.7339°E)
Time: 22:37:59
(UTC+01:00)
Language:

ITAMSAT 1 - Orbit

View from above orbital plane
View from above orbital plane
View from above satellite
View from above satellite

Ground track
Ground track

The orbit data is extracted from the following two-line orbital elements,

1 22826U 93061D   20020.50719841  .00000000  00000-0  18018-4 0  9990
2 22826  98.9129  19.2061 0009984  80.2753 279.9556 14.30410722373004
Epoch (UTC): 20 January 2020 12:10:21
Eccentricity: 0.0009984
inclination: 98.9129°
perigee height: 783 km
apogee height: 797 km
right ascension of ascending node: 19.2061°
argument of perigee: 80.2753°
revolutions per day: 14.30410722
mean anomaly at epoch: 279.9556°
orbit number at epoch: 37300

The dashed part of the orbit path shows where the satellite is in the earth's shadow,  

DLR